Location: Bellerive
(46.9237°N, 7.0223°E)
Time: 06:11:51
(UTC+00:00)

USA 234 - Pass Details

Date: 09 April 2020
Orbit: 1102 x 1106 km, 123.0° (Epoch: 14 May)

Event Time Altitude Azimuth Distance (km) Brightness Sun altitude
Rises 19:51:31 0° 56° (NE) 3,926 5.9 -16.4°
Reaches altitude 10° 19:54:17 10° 65° (ENE) 2,965 5.2 -16.8°
Maximum altitude 20:00:09 35° 129° (SE) 1,715 3.7 -17.6°
Drops below altitude 10° 20:06:00 10° 193° (SSW) 2,954 5.3 -18.5°
Sets 20:08:44 0° 202° (SSW) 3,909 6.0 -18.8°
